This is the latest recevied weather packets stored in our database for station/object WX7FGZ-5. If no packets are shown the sender has not sent any weather packets the latest 10 day(s).
| Time | Temp. | Humidity | Pressure | Rain* | Wind** | Luminosity | Snow |
|---|---|---|---|---|---|---|---|
| 1777951203 | 8.33° C | 43% | 1018.5 hPa | 0 mm | - | 0 W/m² | - |
| 1777951149 | 8.89° C | 42% | 1018.4 hPa | 0 mm | - | 0 W/m² | - |
| 1777950921 | 8.89° C | 42% | 1018.4 hPa | 0 mm | - | 0 W/m² | - |
| 1777950323 | 8.89° C | 42% | 1018.5 hPa | 0 mm | - | 0 W/m² | - |
| 1777949702 | 8.89° C | 42% | 1018.2 hPa | 0 mm | - | 0 W/m² | - |
| 1777949406 | 8.89° C | 42% | 1018.3 hPa | 0 mm | - | 0 W/m² | - |
| 1777949137 | 8.89° C | 42% | 1018.2 hPa | 0 mm | - | 0 W/m² | - |
| 1777949103 | 8.89° C | 42% | 1018.2 hPa | 0 mm | - | 0 W/m² | - |
| 1777948218 | 9.44° C | 42% | 1017.9 hPa | 0 mm | - | 0 W/m² | - |
| 1777947619 | 9.44° C | 41% | 1017.9 hPa | 0 mm | - | 0 W/m² | - |
| 1777947311 | 9.44° C | 41% | 1017.8 hPa | 0 mm | - | 0 W/m² | - |
| 1777946704 | 9.44° C | 40% | 1017.7 hPa | 0 mm | - | 5 W/m² | - |
| 1777946404 | 10° C | 40% | 1017.7 hPa | 0 mm | - | 11 W/m² | - |
| 1777946121 | 10° C | 40% | 1017.7 hPa | 0 mm | - | 14 W/m² | - |
| 1777945805 | 10° C | 39% | 1017.7 hPa | 0 mm | - | 23 W/m² | - |
| 1777945203 | 10° C | 39% | 1017.8 hPa | 0 mm | - | 33 W/m² | - |
| 1777944902 | 10.56° C | 40% | 1017.5 hPa | 0 mm | - | 39 W/m² | - |
| 1777944606 | 10.56° C | 40% | 1017.6 hPa | 0 mm | - | 44 W/m² | - |
| 1777944304 | 10.56° C | 39% | 1017.3 hPa | 0 mm | - | 56 W/m² | - |
| 1777944003 | 10.56° C | 39% | 1017.3 hPa | 0 mm | - | 63 W/m² | - |
| 1777943413 | 11.11° C | 40% | 1017.4 hPa | 0 mm | - | 77 W/m² | - |
| 1777943102 | 11.11° C | 41% | 1017.5 hPa | 0 mm | - | 81 W/m² | - |
| 1777942806 | 11.11° C | 40% | 1017.4 hPa | 0 mm | - | 90 W/m² | - |
| 1777941902 | 11.67° C | 40% | 1018.2 hPa | 0 mm | - | 121 W/m² | - |
| 1777941603 | 11.67° C | 42% | 1018.1 hPa | 0 mm | - | 176 W/m² | - |
* Rain latest hour (hover to see other rain measurements)
** Current wind speed in m/s (hover to see current wind gust speed)